BTape's sites:

title views votes rating creation
?fad 1,691 32 (3.53)  2010-06-06
?Hermey really doesn't like to make toys 9,148 214 (3.80)  2007-12-28
?homUffculus 6,636 163 (3.32)  2007-11-22
?Milla's Booth is Popular 11,979 236 (3.58)  2007-08-20
?Tom Arnold Lost His Way in the Peruvian Jungle 7,012 230 (3.82)  2007-08-15
?Hum(?x)n 6,275 165 (3.73)  2007-08-08
?happy return 3,008 131 (3.19)  2007-07-09
?PrintScrn 38,203 766 (3.89)  2007-06-29
?Ron Stewart releases the YTMND Flash Roddie-Lo... 4,830 195 (3.75)  2007-06-27
?UNICORx© (Ask your doctor) 5,363 144 (3.61)  2007-06-26
?The Power of Lightning at your Fingertips! 15,092 508 (3.95)  2007-06-18
?How Outback grills their steaks to perfection 5,512 185 (3.18)  2007-06-15
?These are my ACMES! 11,537 329 (4.02)  2007-06-14
?Arnold loves the iPhone's new features 9,843 288 (3.73)  2007-06-11
?Female Cosby on rocketfrancais 1,609 55 (3.82)  2007-06-11
?Special Edition™ 3,297 100 (3.59)  2007-05-30
?Scarlett Flavored Hotty Juice 2,263 68 (3.81)  2007-05-29
?Jed makes Jed dig a hole to find the buried issue of ... 53,101 729 (3.00)  2007-05-25
?Nicolas Cage is persistant 12,210 309 (4.04)  2007-05-21
?Fruit Killer Jack's Assault on Pear 2,575 78 (3.68)  2007-05-16
?How's the pie? 19,517 413 (4.05)  2007-05-09
?Cosby, Über Ninja Turtle 24,707 489 (4.24)  2007-05-05
?cosbydowners 31,273 725 (3.66)  2007-05-02
?True Journey of a YTMND 15,744 404 (3.94)  2007-04-30
?Come D'oh With Me! 10,635 344 (3.88)  2007-04-29
?! Eyeing Breakfast 3,369 136 (3.74)  2007-04-25
?HEY HEY YOU YOU! 14,165 225 (4.01)  2007-04-23
?Dr. McCainlove or: How I Learned to Stop Worryin... 10,261 335 (4.06)  2007-04-20
?Nacho Monk#?!y 2,006 74 (3.82)  2007-04-17
?P1ZZ4 C04ST3R 10,064 251 (3.84)  2007-04-08
?CONTEST: Jed Light District 1,384 43 (3.91)  2007-04-08
?ChArinold's forgot hNOOOOOs (VOTE 5 P... 919 74 (3.86)  2007-04-07
?300TMND: CONAN IS... NOT A FEATURE, ... 4,575 225 (3.90)  2007-04-06
?GU3SS WH0'S B4CK 18,401 426 (3.96)  2007-04-03
?TCBCR Raiding 4,421 180 (3.84)  2007-04-03
?NOOOller Coaster: Special Edition (fun times mix) 1,573 52 (3.81)  2007-04-03
?S3CR3T P1ZZ4 M4N 15,620 463 (4.17)  2007-04-01
?Banana Bride 8,132 235 (3.68)  2007-03-31
?Aquelairone 1,013 69 (3.90)  2007-03-31
?(nsfw) FORGOTMND: BUWSH AND CARIE (VO... 1,554 78 (3.91)  2007-03-25
?KANE ROBOT MAKES HIS X91TH COMPUTATI... 1,460 79 (3.80)  2007-03-23
?A LITERAL REPRESENTATION OF YOUR DIGIT... 1,970 114 (3.75)  2007-03-23
?TWINKYTTD~ HE WANTS TO EAT TWINKICY... 2,193 66 (3.85)  2007-03-23
?One Day When You Least Expect It 11,497 370 (4.39)  2007-03-22
?Captain Miller's Lollipop Woes 13,869 404 (4.32)  2007-03-18
?Silence of the Loompas 18,283 467 (4.32)  2007-03-16
?(nsfw) Ghorge Lohan DOESNT care about changin... 4,674 69 (3.91)  2007-03-13
?Fyrestorm is Neo 1,699 82 (3.74)  2007-03-12
?It's YTMND 4,070 185 (3.69)  2007-03-12
?Peter Mourns Uncle Ben's Passing 11,052 356 (4.30)  2007-03-12
?Who Put The Jed? 1,222 48 (3.73)  2007-03-11
?(nsfw) Forgetting Poland: VOTE5 in 30 Frames 3,861 233 (3.85)  2007-03-09
?(nsfw) Beans & Forbreadgot 4,907 105 (3.48)  2007-03-09
?BAAAAAng BAAAAAng On The Door BAAA... 9,635 226 (3.49)  2007-03-07
?Epic Syncan Ree Maneuver Rave 3,591 98 (3.88)  2007-03-06
?Dueling Lennies 16,912 351 (4.00)  2007-03-05
?Dennal Plananza 13,078 372 (4.09)  2007-03-04
?Searching for Bubb Rubb Fischer 8,515 248 (3.79)  2007-03-03
?What You See When You Don't Double Ba... 11,454 391 (4.00)  2007-03-02
?H1S P1ZZ4 L1V3S 0N... 15,180 447 (4.22)  2007-02-22
?P1ZZ4 GUY C4N'T ST0P TH3 P1ZZ4 11,244 378 (4.10)  2007-02-20
?C4N'T BR34K P1ZZ4 GUY'S STR1D... 15,011 439 (4.19)  2007-02-19
?P1ZZ4 P13 P4YB4CK PL4N 19,381 386 (4.24)  2007-02-18
?ARTMND: Classical Renaissance Wizard 1,863 118 (3.94)  2007-02-18
?P1ZZ4 GUY G3T5 D0WN 61,778 921 (4.26)  2007-02-16
?Dax Punk: MOMMMM!!! (Remastered) 26,131 408 (3.98)  2007-02-16
?Westley's Secret 14,904 652 (4.48)  2007-02-15
?Mola Ram's Temple of Love 13,511 361 (4.30)  2007-02-13
?Jed on a Mule in Space 9,963 202 (3.37)  2007-02-11
?Dennis Bergkamp Belts Out a Ball Melter 2,450 85 (3.85)  2007-02-11
?KOENTMND: MATLABspace Compilercide 4,486 185 (4.23)  2007-02-09
?Get Off My YTMND 1,430 103 (3.99)  2007-02-08
?We Didn't Start This Jed-Compilation! (glitche... 1,727 96 (3.93)  2007-02-06
?Oh! Ho! Ho! It's McFly! 23,159 568 (4.32)  2007-02-04
?Daft Jitz ft. McFly 5,127 190 (3.96)  2007-02-04
?The End of McFly 2,893 146 (3.89)  2007-02-03
?Ye Olde Tavern's New Talent 1,169 57 (3.86)  2007-02-02
?(nsfw) Did you notice a sign outside my house? 3,463 97 (4.01)  2007-02-02
?MAI MASHEENZ IN THE FUTURE! 4,561 127 (3.72)  2007-01-31
?LOL, MAI MASHEENZ 1,779 69 (3.84)  2007-01-31
?(nsfw) Cpt. Kirkbush Duglass Forgots Polendaes! (... 1,953 115 (3.83)  2007-01-31
?KOENTMND: Did you notice a sign outside my hou... 3,746 157 (3.89)  2007-01-30
?HNOOOOmer Forgots a Polend by 30 Seconds Mi... 3,767 194 (3.84)  2007-01-26
?KOENTMND: Matlab Bonanza 6,221 124 (4.02)  2007-01-25
?KOENTMND: Dr. Billy V. KHAN 16,068 291 (3.26)  2007-01-25
?The PirAAAAAAAnha Plants take over! 7,659 344 (4.00)  2007-01-25
?BUSHZIE SEES HIS FUTURE ......And it's ... 2,251 109 (3.84)  2007-01-25
?KHANTMND: It's Not KHANusual 2,447 122 (3.84)  2007-01-24
?Ray Liotta gets busted at the stop light and freaks o... 13,123 315 (3.28)  2007-01-23
?Face to Face with Salt 3,663 138 (3.80)  2007-01-23
?404 Beautiful House Not Found 2,875 92 (3.80)  2007-01-23
?Jeds Watch Puppet Show 1,839 79 (3.86)  2007-01-23
?Clocktower Chills! 10,914 440 (3.93)  2007-01-19
?MacGyver vs. PC 2,359 142 (3.63)  2007-01-19
?(nsfw) fuckfish is trapped 3,563 173 (3.83)  2007-01-17
?Dirty Dealings! 8,351 286 (3.82)  2007-01-17
?Who Put The Wrong? 12,344 462 (4.02)  2007-01-15
?KHANTMND: Girls Just Wanna Have Khan 2,760 159 (3.88)  2007-01-15
?Lex Luthor > WOOOOOOOOOO 2,850 134 (3.92)  2007-01-15
?JED BONANZA! 1,785 70 (3.64)  2007-01-14
?(nsfw) BIPFT: The Aftermath 40,014 705 (4.48)  2007-01-12
?(nsfw) But I Pope From There 6,805 98 (3.72)  2007-01-12
?Lex Luthor = church choir 44,692 873 (4.44)  2007-01-10
?(nsfw) But I Forgot Poland From There! 2,537 107 (3.93)  2007-01-10
?D0N'T DR34M 1T 12,933 272 (3.83)  2007-01-09
?Jed sees a burning brush like in the bible 1,205 57 (3.65)  2007-01-09
?Jed Brushes Teeth 1,206 46 (3.65)  2007-01-09
?(nsfw) P1ZZ4 GUY G0N' G1V3 1T T0 Y4 30,105 578 (4.26)  2007-01-07
?F.B.I. 9,882 337 (3.99)  2007-01-07
?R3TURN 0F TH3 P1ZZ4 GUY 9,482 159 (4.16)  2007-01-07
?WH4T 1S P1ZZ4? 8,654 150 (4.03)  2007-01-07
?WH3R3 1S MY P1ZZ4? 9,586 135 (3.95)  2007-01-07
?TH4T P1ZZ4 1S F0R D1SPL4Y PURP0S3S 0NLY... 19,545 204 (4.24)  2007-01-07
?Chunk Addresses Congress 49,350 912 (4.61)  2007-01-07
?(nsfw) But I Poop From There 794,437 1,889 (4.49)  2007-01-07
?Ray Liotta Visits The Jed Lounge (Hit F11) 2,160 107 (3.72)  2007-01-04
?P is For(got) Poland (VOTE % PLZ) 7,364 172 (3.85)  2007-01-02
?It's Too Bad She Won't Live... 18,924 396 (3.67)  2007-01-01
?Mortal Kombat: Kirk vs. Gorn 25,554 514 (4.28)  2006-12-31
?(nsfw) How to Oily *ss F*ck a Telemarketer (pleas... 13,499 325 (2.90)  2006-12-28
?Almost There... 19,031 526 (4.31)  2006-12-25
?Forgotten Polish Christmas Carol (VOTE 5) 8,272 328 (3.52)  2006-12-24
?Bill O'Reilly Attacks Rosie O'Donnell 9,970 209 (3.79)  2006-12-23
?I got Lost and all they gave me was this stupid Fish ... 2,473 71 (3.66)  2006-12-23
?The Jeds Dwell On Life (Classy) 2,075 81 (3.91)  2006-12-20
?HIJACKED BY FUTURE KONANE 15,900 386 (3.47)  2006-12-18
?WHAT HAVE YOU DONE? 1,748 104 (3.57)  2006-12-14
?Did you notice a sign outside my house? 3,483 126 (3.61)  2006-12-14
?(nsfw) Red and White Poland Machine (VOTE 5) 119,290 2,387 (2.99)  2006-12-11
?(nsfw) Verizon Fails at Polish Mathematics (30sec) 3,624 91 (3.88)  2006-12-09
?(nsfw) The Inevitable Return of the Great White Po... 3,878 79 (3.81)  2006-12-01
?(nsfw) Pope Kassius has the Triforce 3,611 95 (3.62)  2006-11-25
?Forgot Poland - The Soundtrack (*VOLUME THIRT... 6,708 256 (4.00)  2006-11-09
?KHANTMND: KHAN knows the code (Updated) 5,481 174 (4.10)  2006-10-26
?Always Something There to Remind Me (VOTE 5) 7,860 283 (4.09)  2006-10-25
?(nsfw) KHANTMND: KHAN works it 1,920 65 (3.83)  2006-10-25
?A kitten ate my keyboard! 6,296 101 (3.83)  2006-10-17
?KHANTMND: A-Ha KHAN 6,067 171 (4.13)  2006-10-16
?KHANTMND: Kirk loves KHANbell peppers! 1,936 100 (3.94)  2006-10-16
?(nsfw) Poland vs. Cherry 5,972 221 (3.79)  2006-10-08
?KHANTMND: KHANbot Rock! 6,053 163 (4.06)  2006-10-08
?BAH da BAH BAH BAH, I'm Lovin&#0... 32,075 821 (4.16)  2006-09-17
?(nsfw) Poland in the Moonlight 2,495 109 (3.98)  2006-09-12
?(nsfw) DEW!!!!!N'T FORGET POLAND! 4,161 158 (4.04)  2006-09-12
?Khanaway Poland 7,172 353 (3.53)  2006-09-10
?Poland has you... 23,258 751 (3.96)  2006-09-05
?YOU ARE NOT MY FATHER!!! (extended edition) 5,814 229 (3.94)  2006-09-01
?(nsfw) Bush Falls. Poland Catches. 9,057 303 (3.76)  2006-08-30
?(nsfw) Kerry Mcfly Forgot Bush's Polend 4,480 155 (3.96)  2006-08-27
?(nsfw) Polend Avenue 2,594 129 (3.96)  2006-08-27
?Relax, don't do it. Miss Poland 2006 6,071 314 (3.87)  2006-08-14
?Poland Puppet! 7,524 314 (4.03)  2006-08-05
?BTape's continuous test site 2,651 110 (4.24)  2006-08-01
?I Can't Spell YTMND 5,309 251 (3.95)  2006-07-21
?(nsfw) A MESSAGE FROM BUSH POLAND VO... 2,420 102 (3.78)  2006-07-16
?Lex > Zidane 9,019 179 (3.89)  2006-07-12
?(nsfw) The Poles Attack Materazzi 5,780 121 (3.94)  2006-07-12
?(nsfw) red poland does the lol 2,607 173 (3.82)  2006-07-12
?YTMND Charades! #2 3,303 86 (3.93)  2006-07-05
?Colbert Maxes Out 29,547 609 (4.05)  2006-07-01
?The True Exciting Eon8 Jed End 2,384 71 (3.86)  2006-06-30
?(nsfw) SHOE ON HEAD FORGOT POLAND AN... 5,997 144 (3.88)  2006-06-22
?Your optical illusion has one weakness... 4,048 102 (3.89)  2006-06-20
?Xenu Attempts Escape 21,843 664 (4.24)  2006-06-13
?NEDM is Unstoppable 5,302 248 (3.34)  2006-05-13
?You're Being Watched 1,596 87 (3.97)  2006-05-07
?blackguard 1,589 77 (3.83)  2006-04-29
?charlatan 2,169 68 (3.75)  2006-04-29
?Data Attempts Epic Maneuver 13,211 162 (3.96)  2006-04-16
?Red Ranger Getaway 10,244 138 (4.00)  2006-04-16
?Hypno-Hands Pets Kitten 6,921 210 (4.07)  2006-04-05
?☺╚╬╩♥╬╩╗☻... 3,503 187 (3.99)  2006-04-03
?Chasing Insulin 11,637 571 (4.21)  2006-04-01
?Hypno-Hands Tells Fortunes 1,635 123 (4.02)  2006-04-01
?Doodlepad Arcades 893 124 (3.94)  2006-03-31
?{{([|*****|])}} 1,258 126 (3.76)  2006-03-31
?Doodlepad Experience 869 123 (3.96)  2006-03-31
?Office Whiteboards 4,390 130 (3.89)  2006-03-31
?Tour De Rompre 1,372 114 (3.87)  2006-03-31
?(nsfw) The Doodlepad Experience 1,728 120 (3.85)  2006-03-31
?Hypno-Hands Strikes Again 4,378 342 (3.97)  2006-03-31
?Ninjas Beyond Fads 2,069 131 (3.98)  2006-03-31
?Hypno-Hands Watches Family Christmas Videos 4,705 211 (4.02)  2006-03-28
?Peter Griffin Goes To An Arcade 22,030 479 (4.09)  2006-03-28
?The Beatles were Suave 5,290 164 (4.01)  2006-03-22
?PTKFGS: Pirates Are So Original 16,902 346 (3.98)  2006-03-17
?Talk About Obsessive Compulsive 9,872 426 (4.00)  2006-03-15
?Phenomena 5,148 233 (4.04)  2006-03-13
?I Saw the Sun! 1,648 115 (3.99)  2006-03-12
?Smartass Pirate 10,608 294 (4.00)  2006-03-10
?Where's Your Bed At? 2,604 141 (3.99)  2006-03-10
?Hey Java! 4,562 140 (3.96)  2006-03-09
?I Want Your Bed 3,592 108 (3.92)  2006-03-09
?Not Gonna Take It 11,440 442 (4.11)  2006-03-09
?You're Just What I Kneaded 6,780 184 (4.02)  2006-03-09
?Time is Running Out 3,985 146 (3.97)  2006-03-09
?It's Under Pressure 2,142 120 (3.95)  2006-03-08
?Ricola! 4,083 157 (3.85)  2006-03-08
?Cold Hard Bitch 11,273 298 (4.01)  2006-03-08
?Ohno! 3,625 140 (3.89)  2006-03-08
?Secret Agent Kramer 5,504 222 (4.01)  2006-03-07
?Everyday is Groundhog Day 5,672 169 (3.99)  2006-03-01
?I met Batman and I got sent to Arkham Asylum (ed... 17,813 297 (4.04)  2006-02-27